Flag for Czech Republic Weather past 2 weeks in Plzen, Czech Republic

Now
76 °F

Passing clouds.


Feels Like: 78 °F
Forecast: 64 / 83 °F
Wind: 8 mph from West

Location: Kocelovice

Current Time: Aug 5, 2015 at 12:30:43 AM

Latest Report: Aug 4, 2015 at 10:00 PM


Visibility: 19 mi

Pressure: 29.91 "Hg

Humidity: 50%

Dew point: 56 °F

Location of PlzenLocation

Historic Weather in Plzen — Graph

°F

Plzen temperature yesterday

Maximum temperature yesterday: 89 °F (at 4:00 PM)
Minimum temperature yesterday: 59 °F (at 6:00 AM)
Average temperature yesterday: 75 °F

Past Weeks' High & Low Weather Summary

 TemperatureHumidityPressure
High94 °F (Jul 22, 4:00 PM)99% (Aug 3, 5:00 AM)30.13 "Hg (Aug 3, 5:00 AM)
Low43 °F (Jul 30, 6:00 AM)24% (Jul 26, 5:00 PM)29.64 "Hg (Jul 25, 3:00 AM)
Average67 °F58%29.90 "Hg
* Reported Midnight between Jul 20 and Jul 21 — Aug 4 10:00 PM, Plzen, Weather by CustomWeather, © 2015

Note: Actual official high and low records may vary slightly from our data, if they occured in-between our weather recording intervals... More about our weather records

Advertising

Plzen weather history for previous 24 hours

 ConditionsComfort  
Time TempWeatherWind HumidityBarometerVisibility
10:00 PM
Tue, Aug 4
76 °FPassing clouds.8 mph50%29.91 "Hg19 mi
9:00 PM80 °FPassing clouds.2 mph34%29.87 "Hg25 mi
8:00 PM83 °FPartly sunny.3 mph31%29.85 "Hg28 mi
7:00 PM87 °FPartly sunny.6 mph29%29.82 "Hg31 mi
6:00 PM87 °FPartly sunny.6 mph29%29.81 "Hg37 mi
5:00 PM87 °FPartly sunny.3 mph31%29.81 "Hg31 mi
4:00 PM89 °FScattered clouds.N/A30%29.81 "Hg25 mi
3:00 PM86 °FScattered clouds.5 mph33%29.83 "Hg25 mi
2:00 PM86 °FPassing clouds.6 mph32%29.85 "Hg25 mi
1:00 PM85 °FPassing clouds.7 mph35%29.86 "Hg25 mi
12:00 PM81 °FPassing clouds.6 mph42%29.89 "Hg16 mi
11:00 AM79 °FPassing clouds.7 mph50%29.91 "Hg14 mi
10:00 AM75 °FSunny.7 mph60%29.94 "Hg12 mi
9:00 AM72 °FPassing clouds.5 mph66%29.96 "Hg12 mi
8:00 AM67 °FPassing clouds.5 mph75%29.98 "Hg12 mi
7:00 AM61 °FCool.2 mph86%30.01 "Hg11 mi
6:00 AM59 °FCool.2 mph88%30.01 "Hg10 mi
5:00 AM59 °FCool.3 mph87%30.02 "Hg10 mi
4:00 AM62 °FCool.2 mph81%30.02 "Hg12 mi
3:00 AM63 °FMild.N/A78%30.02 "Hg12 mi
2:00 AM63 °FMild.3 mph75%30.02 "Hg12 mi
1:00 AM66 °FMild.2 mph66%30.02 "Hg12 mi
12:00 AM68 °FMild.N/A61%30.03 "Hg12 mi
Weather by CustomWeather, © 2015

See weather overviewHow to use our weather pages